Boston, MA

11:28 PM EST on February 07, 2016 (GMT -0500)
Logan International

Weather History for KBOS - February, 2014

Change the Weather History Date:

Monday, February 10, 2014

  Actual Average Record
Temperature  
Mean Temperature 25 °F 31 °F  
Max Temperature 30 °F 38 °F 60 °F (1990)
Min Temperature 20 °F 24 °F -5 °F (1875)
Degree Days  
Heating Degree Days 40 34  
Month to date heating degree days 354 347  
Since 1 July heating degree days 3500 3457  
Cooling Degree Days 0 0  
Month to date cooling degree days 0 0  
Year to date cooling degree days 0 0  
Moisture  
Dew Point 12 °F    
Average Humidity 64    
Maximum Humidity 88    
Minimum Humidity 40    
Precipitation  
Precipitation T in 0.11 in 1.73 in (1885)
Month to date precipitation 1.33 1.08  
Year to date precipitation 4.57 4.44  
Sea Level Pressure  
Sea Level Pressure 30.03 in    
Wind  
Wind Speed 12 mph (WNW)    
Max Wind Speed 20 mph    
Max Gust Speed 25 mph    
Visibility 9 miles    
Events Snow    
T = Trace of Precipitation, MM = Missing Value Source: NWS Daily Summary

Daily Weather History Graph

Daily Weather History Graph

Search for Another Location

Airport or City:

Trip Planner

Search our weather history database for the weather conditions in past years. The results will help you decide how hot, cold, wet, or windy it might be!

Date:

Astronomy

Feb. 10, 2014 Rise Set
Actual Time 6:47 AM EST 5:09 PM EST
Civil Twilight 6:18 AM EST 5:39 PM EST
Nautical Twilight 5:44 AM EST 6:12 PM EST
Astronomical Twilight 5:12 AM EST 6:44 PM EST
Moon 1:34 PM EST (2/10) 3:39 AM EST (2/10)
Length of Visible Light 11h 20m
Length of Day
10h 22m
Waxing Gibbous, 84% of the Moon is Illuminated
Feb 10
Waxing Gibbous
Feb 14
Full
Feb 22
Last Quarter
Mar 1
New
Mar 8
First Quarter

Hourly Weather History & Observations

Time (EST) Temp. Windchill Dew Point Humidity Pressure Visibility Wind Dir Wind Speed Gust Speed Precip Events Conditions
12:07 AM 24.8 °F 16.1 °F 21.2 °F 86% 29.96 in 1.0 mi WSW 8.1 mph - 0.00 in Snow Light Snow
12:17 AM 24.8 °F 14.0 °F 21.2 °F 86% 29.96 in 1.0 mi SW 11.5 mph - 0.00 in Snow Light Snow
12:37 AM 24.8 °F 15.3 °F 21.2 °F 86% 29.95 in 2.0 mi SW 9.2 mph - 0.00 in Snow Light Snow
12:44 AM 24.8 °F 15.3 °F 19.4 °F 80% 29.94 in 1.8 mi WSW 9.2 mph - 0.00 in Snow Light Snow
12:54 AM 25.0 °F 14.2 °F 19.9 °F 81% 29.94 in 4.0 mi SW 11.5 mph - 0.00 in Snow Light Snow
1:06 AM 24.8 °F 15.3 °F 19.4 °F 80% 29.93 in 10.0 mi WSW 9.2 mph - 0.00 in   Overcast
1:54 AM 24.1 °F 13.7 °F 18.0 °F 77% 29.92 in 10.0 mi SW 10.4 mph - 0.00 in   Mostly Cloudy
2:54 AM 24.1 °F 13.7 °F 18.0 °F 77% 29.92 in 10.0 mi WSW 10.4 mph - N/A   Mostly Cloudy
3:07 AM 23.0 °F 14.7 °F 17.6 °F 80% 29.92 in 10.0 mi WSW 6.9 mph - N/A   Scattered Clouds
3:54 AM 23.0 °F 11.1 °F 17.1 °F 78% 29.91 in 10.0 mi West 12.7 mph - N/A   Scattered Clouds
4:54 AM 21.9 °F 11.0 °F 17.1 °F 82% 29.92 in 10.0 mi WNW 10.4 mph - N/A   Scattered Clouds
5:54 AM 21.9 °F 9.2 °F 16.0 °F 78% 29.93 in 10.0 mi WNW 13.8 mph - N/A   Scattered Clouds
6:54 AM 21.9 °F 9.8 °F 15.1 °F 75% 29.95 in 10.0 mi WNW 12.7 mph - N/A   Scattered Clouds
7:54 AM 23.0 °F 10.6 °F 14.0 °F 68% 29.98 in 10.0 mi WNW 13.8 mph - N/A   Partly Cloudy
8:54 AM 23.0 °F 10.6 °F 12.9 °F 65% 30.00 in 10.0 mi WNW 13.8 mph 21.9 mph N/A   Clear
9:54 AM 25.0 °F 12.2 °F 12.0 °F 58% 30.03 in 10.0 mi NW 16.1 mph 20.7 mph N/A   Partly Cloudy
10:54 AM 27.0 °F 14.3 °F 10.0 °F 49% 30.05 in 10.0 mi NW 17.3 mph - N/A   Partly Cloudy
11:54 AM 27.0 °F 15.2 °F 8.1 °F 45% 30.03 in 10.0 mi NW 15.0 mph 21.9 mph N/A   Partly Cloudy
12:54 PM 27.0 °F 15.6 °F 7.0 °F 43% 30.02 in 10.0 mi WNW 13.8 mph 20.7 mph N/A   Partly Cloudy
1:54 PM 28.9 °F 18.6 °F 8.1 °F 41% 30.02 in 10.0 mi NNW 12.7 mph - N/A   Partly Cloudy
2:54 PM 28.9 °F 18.6 °F 8.1 °F 41% 30.04 in 10.0 mi NNW 12.7 mph 19.6 mph N/A   Scattered Clouds
3:54 PM 27.0 °F 15.6 °F 6.1 °F 41% 30.06 in 10.0 mi NW 13.8 mph - N/A   Partly Cloudy
4:54 PM 26.1 °F 15.6 °F 6.1 °F 43% 30.09 in 10.0 mi NNW 11.5 mph 17.3 mph N/A   Partly Cloudy
5:54 PM 25.0 °F 13.6 °F 5.0 °F 43% 30.13 in 10.0 mi NNW 12.7 mph - N/A   Partly Cloudy
6:54 PM 24.1 °F 15.2 °F 3.9 °F 42% 30.15 in 10.0 mi NNW 8.1 mph - N/A   Partly Cloudy
7:54 PM 23.0 °F 13.9 °F 3.9 °F 44% 30.17 in 10.0 mi WNW 8.1 mph - N/A   Clear
8:54 PM 21.9 °F 11.7 °F 3.9 °F 46% 30.19 in 10.0 mi NW 9.2 mph - N/A   Clear
9:54 PM 21.0 °F 12.4 °F 5.0 °F 50% 30.19 in 10.0 mi WNW 6.9 mph - N/A   Clear
10:54 PM 19.9 °F 11.1 °F 5.0 °F 52% 30.21 in 10.0 mi WNW 6.9 mph - N/A   Clear
11:54 PM 19.9 °F 9.3 °F 5.0 °F 52% 30.22 in 10.0 mi WNW 9.2 mph - N/A   Clear